Location: *
(48.8489°N, 2.3218°E)
Time: 07:31:26
(UTC+00:00)

IRAS Rocket - Pass Details

Date: 23 August 2019
Orbit: 847 x 878 km, 100.0° (Epoch: 19 September)

Event Time Altitude Azimuth Distance (km) Brightness Sun altitude
Exits shadow 22:17:48 73° 129° (SE) 917 4.1 -26.3°
Maximum altitude 22:18:18 81° 72° (ENE) 891 4.2 -26.3°
Drops below altitude 10° 22:23:56 10° 345° (NNW) 2,527 7.7 -26.7°
Sets 22:26:19 0° 345° (NNW) 3,465 8.7 -26.9°
